INTERCOSMOS 24 (20261 NORAD) Tracking and Keplerian Element Data

This shows tracking and keplerian element data for the satellite.

Feedback or suggestion? Click here.




ElementValue
Catalog20261
NameINTERCOSMOS 24
Epoch Orbit47650
Epoch Day15.93701358
Epoch Year2022
RAAN6.4999
Inclination82.6024
Eccentricity0.120181
Argument of Perigee195.1464
Mean Anonmoly161.047
Mean Motion12.56255054
Decay Rate2.72E-06
L11 20261U 89080A 22015.93701358 .00000272 00000+0 77143-4 0 9998
L22 20261 82.6024 6.4999 1201810 195.1464 161.0470 12.56255054476501

Live tracking and technical data element details for INTERCOSMOS 24 (NORAD 20261). INTERCOSMOS 24 can be tracked NOW for your location showing map with azimuth and elevation plus other details from your city location.

Track the satellite on the map from your city or location and see movement details for azimuth, elevation, latitude, longitude, range, height, and movement on the map or in text.







IsCatalogInMostPopularTable: catalog: 20261, numindb: 260
Update: records affected: 1



GetName: 20261 INTERCOSMOS 24

Hit Count: updated at: Mon, 17 Jan 2022 01:49:41 GMT